Location: Rocktram
(38.2574°N, 122.2805°W)
Time: 01:08:45
(UTC+00:00)

Cosmos 1758 - Pass Details

Date: 30 March 2020
Orbit: 539 x 563 km, 82.5° (Epoch: 27 May)

Event Time Altitude Azimuth Distance (km) Brightness Sun altitude
Rises 03:39:15 0° 175° (S) 2,735 6.7 -14.1°
Reaches altitude 10° 03:41:26 10° 170° (S) 1,846 5.7 -14.5°
Maximum altitude 03:45:23 52° 94° (E) 703 3.4 -15.3°
Drops below altitude 10° 03:49:23 10° 18° (NNE) 1,863 6.0 -16.0°
Sets 03:51:37 0° 13° (NNE) 2,763 7.0 -16.4°
